Ketchikan, AK

2:51 AM AKST on January 21, 2019 (GMT -0900)
Ketchikan International

Weather History for PAKT - December, 2018

Change the Weather History Date:

Thursday, December 13, 2018

  Actual Average Record
Temperature  
Mean Temperature 36 °F -  
Max Temperature 43 °F 41 °F 54 °F (1962)
Min Temperature 30 °F 31 °F 5 °F (1971)
Degree Days  
Heating Degree Days 28    
Moisture  
Dew Point 33 °F    
Average Humidity 85    
Maximum Humidity 96    
Minimum Humidity 68    
Precipitation  
Precipitation 0.00 in - - ()
Sea Level Pressure  
Sea Level Pressure 29.49 in    
Wind  
Wind Speed 10 mph (SSE)    
Max Wind Speed 22 mph    
Max Gust Speed 34 mph    
Visibility 9 miles    
Events Rain    
Averages and records for this station are not official NWS values.
T = Trace of Precipitation, MM = Missing Value Source: NWS Daily Summary

Daily Weather History Graph

Daily Weather History Graph

Search for Another Location

Airport or City:

Astronomy

Dec. 13, 2018 Rise Set
Actual Time 8:06 AM AKST 3:15 PM AKST
Civil Twilight 7:20 AM AKST 4:01 PM AKST
Nautical Twilight 6:32 AM AKST 4:49 PM AKST
Astronomical Twilight 5:47 AM AKST 5:34 PM AKST
Moon 12:03 PM AKST (12/13) 9:53 PM AKST (12/13)
Length of Visible Light 8h 41m
Length of Day
7h 09m
Waxing Crescent, 35% of the Moon is Illuminated
Dec 13
Waxing Crescent
Dec 15
First Quarter
Dec 22
Full
Dec 29
Last Quarter
Jan 5
New

Hourly Weather History & Observations

Time (AKST) Temp. Windchill Dew Point Humidity Pressure Visibility Wind Dir Wind Speed Gust Speed Precip Events Conditions
12:53 AM 41.0 °F 33.1 °F 35.6 °F 81% 29.18 in 10.0 mi SE 15.0 mph - N/A   Overcast
1:04 AM 41.0 °F 34.3 °F 36.0 °F 82% 29.20 in 4.0 mi SE 11.5 mph 21.9 mph N/A Rain Rain
1:53 AM 42.1 °F 35.7 °F 35.1 °F 76% 29.22 in 10.0 mi South 11.5 mph 26.5 mph N/A Rain Light Rain
2:15 AM 43.0 °F 35.1 °F 33.1 °F 68% 29.22 in 10.0 mi SE 17.3 mph 34.5 mph N/A   Mostly Cloudy
2:53 AM 43.0 °F 34.0 °F 35.1 °F 74% 29.24 in 6.0 mi SE 21.9 mph 31.1 mph N/A Rain Light Rain
3:26 AM 41.0 °F 32.5 °F 37.0 °F 86% 29.23 in 3.0 mi SE 17.3 mph 33.4 mph N/A Rain Light Rain
3:53 AM 41.0 °F 33.1 °F 37.0 °F 86% 29.24 in 4.0 mi SE 15.0 mph 29.9 mph N/A Rain Rain
4:51 AM 42.8 °F 38.6 °F 35.6 °F 76% 29.29 in 10.0 mi SSE 6.9 mph - N/A   Mostly Cloudy
4:53 AM 43.0 °F 37.7 °F 36.0 °F 76% 29.29 in 10.0 mi SSE 9.2 mph - N/A   Mostly Cloudy
5:53 AM 43.0 °F 39.5 °F 37.0 °F 80% 29.36 in 10.0 mi Variable 5.8 mph - N/A Rain Light Rain
6:10 AM 42.8 °F 39.3 °F 35.6 °F 76% 29.37 in 10.0 mi Variable 5.8 mph - N/A   Mostly Cloudy
6:53 AM 41.0 °F 36.4 °F 35.6 °F 81% 29.42 in 10.0 mi SSE 6.9 mph - N/A   Overcast
7:53 AM 39.9 °F 37.8 °F 33.1 °F 77% 29.50 in 10.0 mi Variable 3.5 mph - N/A   Overcast
8:53 AM 39.2 °F 35.0 °F 33.8 °F 81% 29.55 in 10.0 mi SE 5.8 mph - N/A Rain Light Rain
9:53 AM 39.2 °F 33.0 °F 33.8 °F 81% 29.58 in 10.0 mi SSE 9.2 mph - N/A   Scattered Clouds
11:53 AM 39.2 °F 35.9 °F 35.6 °F 87% 29.65 in 10.0 mi SE 4.6 mph - N/A Rain Light Rain
12:53 PM 37.4 °F 34.9 °F 33.8 °F 87% 29.66 in 7.0 mi SE 3.5 mph - N/A Rain Light Rain
1:53 PM 37.4 °F 32.8 °F 35.6 °F 93% 29.68 in 10.0 mi SE 5.8 mph - N/A   Mostly Cloudy
2:53 PM 35.6 °F 31.7 °F 33.8 °F 93% 29.70 in 10.0 mi South 4.6 mph - N/A   Partly Cloudy
3:53 PM 34.0 °F 31.0 °F 32.0 °F 92% 29.71 in 10.0 mi South 3.5 mph - N/A   Clear
4:53 PM 35.6 °F 30.7 °F 32.0 °F 87% 29.71 in 10.0 mi South 5.8 mph - N/A   Partly Cloudy
5:53 PM 33.1 °F 30.0 °F 30.9 °F 92% 29.70 in 10.0 mi SE 3.5 mph - N/A   Partly Cloudy
6:53 PM 33.1 °F 30.0 °F 32.0 °F 96% 29.68 in 10.0 mi SSE 3.5 mph - N/A   Scattered Clouds
7:53 PM 33.1 °F - 30.9 °F 92% 29.67 in 10.0 mi Calm Calm - N/A   Clear
8:53 PM 32.0 °F 28.7 °F 30.0 °F 92% 29.65 in 10.0 mi SSW 3.5 mph - N/A   Clear
9:53 PM 30.9 °F - 30.0 °F 96% 29.64 in 10.0 mi Calm Calm - N/A   Clear
10:53 PM 30.9 °F - 28.9 °F 92% 29.62 in 10.0 mi Calm Calm - N/A   Partly Cloudy
11:19 PM 32.0 °F 28.7 °F 30.0 °F 92% 29.61 in 10.0 mi West 3.5 mph - N/A   Mostly Cloudy
11:43 PM 30.2 °F 26.7 °F 28.4 °F 93% 29.60 in 10.0 mi NW 3.5 mph - N/A   Scattered Clouds
11:53 PM 30.9 °F 27.5 °F 30.0 °F 96% 29.60 in 10.0 mi NNW 3.5 mph - N/A   Partly Cloudy